Temp
-6 -6 -6 -6 -5 -7 -5 -5 -5 -5 -5 -4 -4 -5 -5 -5 -5 -5 -4 -5 -5 -5 -5 -5 -5 -5 -5 -5 -5 -6 -6 -6 -6 -6 -6 -6 -6 -6 -5 -5 -5 -6 -6 -6 -6 -5 -5 -5 -5
-6 -6 -6 -6 -9 -7 -6 -6 -5 -5 -5 -5 -5 -5 -5 -5 -5 -5 -5 -5 -5 -5 -5 -6 -5 -5 -6 -5 -6 -6 -6 -6 -6 -6 -6 -6 -6 -6 -6 -6 -5 -6 -6 -6 -6 -6 -6 -6 -6
-6 -6 -6 -6 -8 -6 -6 -5 -5 -5 -5 -5 -5 -5 -5 -5 -5 -5 -5 -5 -5 -5 -5 -6 -6 -5 -6 -5 -6 -7 -7 -6 -6 -6 -6 -6 -6 -6 -6 -6 -5 -6 -6 -6 -6 -6 -6 -6 -6
-6 -6 -6 -9 -7 -7 -7 -7 -6 -6 -6 -5 -5 -5 -5 -5 -5 -5 -5 -5 -5 -5 -6 -5 -5 -6 -6 -6 -6 -6 -7 -7 -7 -6 -6 -7 -7 -6 -6 -6 -6 -6 -6 -6 -6 -6 -6 -6 -6
-6 -6 -9 -9 -7 -7 -7 -7 -7 -7 -6 -5 -5 -6 -6 -5 -5 -5 -5 -5 -5 -5 -6 -6 -5 -6 -6 -6 -6 -6 -7 -7 -7 -7 -6 -7 -7 -6 -7 -6 -6 -6 -6 -6 -6 -6 -6 -6 -6
-6 -6 -9 -8 -8 -7 -7 -7 -7 -7 -7 -6 -5 -6 -6 -5 -5 -5 -5 -5 -6 -5 -6 -5 -6 -6 -6 -5 -6 -6 -6 -7 -7 -7 -7 -7 -7 -7 -7 -6 -6 -6 -6 -6 -6 -6 -6 -6 -6
-6 -6 -6 -9 -9 -7 -7 -7 -7 -7 -7 -7 -7 -6 -6 -5 -5 -5 -5 -6 -6 -6 -6 -6 -6 -6 -6 -6 -6 -6 -6 -6 -7 -7 -7 -7 -7 -7 -7 -6 -6 -6 -7 -6 -7 -7 -7 -7 -7
-6 -6 -7 -8 -9 -7 -7 -7 -7 -7 -7 -7 -7 -6 -6 -6 -6 -5 -5 -6 -6 -6 -6 -7 -7 -7 -6 -6 -6 -6 -6 -6 -7 -8 -6 -7 -7 -7 -6 -7 -6 -6 -7 -6 -7 -7 -7 -7 -7
-6 -7 -6 -6 -7 -7 -7 -7 -7 -7 -7 -7 -7 -7 -6 -6 -6 -6 -5 -6 -6 -6 -6 -7 -7 -7 -7 -7 -7 -6 -6 -6 -7 -8 -7 -7 -7 -7 -6 -7 -7 -7 -7 -7 -7 -7 -7 -7 -7
-7 -7 -7 -7 -6 -6 -7 -7 -7 -7 -7 -7 -7 -7 -7 -7 -6 -6 -6 -6 -6 -6 -7 -7 -7 -7 -7 -7 -7 -7 -7 -7 -7 -7 -7 -8 -8 -8 -8 -7 -7 -7 -7 -7 -7 -7 -7 -7 -7
-7 -7 -6 -7 -7 -6 -7 -7 -7 -7 -7 -7 -7 -7 -7 -7 -7 -7 -6 -6 -6 -7 -8 -7 -8 -7 -8 -7 -7 -7 -7 -7 -8 -8 -7 -8 -8 -7 -7 -7 -7 -7 -7 -7 -7 -7 -7 -7 -6
-7 -7 -6 -7 -7 -6 -7 -7 -7 -7 -7 -7 -7 -7 -8 -7 -7 -7 -7 -7 -7 -7 -8 -7 -7 -8 -7 -7 -7 -7 -7 -8 -8 -8 -8 -8 -9 -8 -7 -7 -7 -7 -7 -7 -7 -7 -7 -7 -7
-7 -7 -7 -7 -7 -7 -7 -7 -6 -7 -7 -7 -7 -7 -7 -8 -8 -8 -8 -7 -7 -7 -7 -8 -7 -7 -7 -8 -7 -8 -8 -8 -8 -8 -8 -8 -8 -8 -8 -8 -8 -8 -8 -8 -8 -7 -7 -7 -7
-7 -7 -7 -7 -7 -7 -7 -7 -7 -7 -7 -7 -7 -7 -7 -7 -8 -8 -8 -8 -8 -7 -7 -7 -7 -7 -7 -8 -8 -8 -8 -8 -8 -8 -8 -8 -8 -8 -8 -8 -8 -8 -8 -8 -8 -8 -8 -7 -7
-7 -7 -7 -7 -8 -8 -8 -7 -7 -7 -7 -7 -7 -7 -7 -7 -8 -8 -8 -8 -8 -8 -8 -7 -7 -7 -8 -8 -8 -8 -8 -8 -8 -8 -9 -9 -9 -9 -8 -8 -8 -8 -8 -8 -8 -8 -8 -8 -8
-7 -7 -8 -7 -8 -8 -8 -8 -8 -8 -8 -8 -7 -7 -7 -7 -7 -8 -8 -8 -8 -9 -9 -8 -8 -8 -8 -8 -8 -8 -8 -8 -8 -8 -8 -8 -8 -9 -8 -9 -8 -8 -8 -8 -9 -9 -8 -9 -9
-7 -8 -8 -7 -7 -8 -8 -8 -8 -8 -8 -8 -8 -7 -7 -7 -7 -7 -8 -8 -8 -8 -8 -9 -9 -8 -8 -8 -8 -8 -8 -8 -8 -8 -8 -8 -8 -8 -8 -8 -9 -9 -9 -9 -9 -9 -9 -9 -9
-8 -8 -8 -8 -7 -7 -8 -8 -9 -9 -9 -9 -8 -8 -8 -8 -7 -7 -7 -7 -7 -8 -8 -8 -9 -9 -9 -9 -9 -9 -9 -9 -9 -8 -8 -8 -9 -9 -9 -9 -9 -9 -9 -9 -9 -10 -10 -10 -9
-7 -8 -8 -7 -8 -8 -8 -8 -8 -9 -9 -9 -9 -8 -8 -8 -8 -7 -7 -7 -8 -8 -8 -8 -8 -9 -9 -9 -9 -9 -9 -9 -9 -9 -9 -9 -9 -9 -9 -9 -9 -9 -9 -9 -9 -9 -9 -9 -10
-7 -8 -8 -8 -8 -8 -8 -8 -8 -8 -8 -8 -8 -8 -8 -8 -8 -8 -7 -7 -7 -7 -8 -8 -8 -8 -8 -9 -9 -9 -9 -8 -9 -9 -9 -9 -9 -9 -9 -9 -9 -9 -9 -10 -9 -9 -9 -9 -9
-7 -8 -8 -8 -8 -7 -8 -8 -8 -8 -8 -8 -8 -8 -8 -8 -8 -8 -8 -8 -7 -7 -7 -8 -8 -8 -8 -8 -8 -8 -8 -8 -8 -8 -8 -9 -9 -9 -9 -9 -9 -9 -9 -9 -10 -9 -9 -9 -9
-8 -6 -7 -7 -8 -8 -7 -7 -8 -8 -8 -8 -8 -8 -8 -7 -7 -7 -8 -8 -8 -7 -7 -8 -8 -7 -7 -8 -8 -8 -8 -8 -8 -8 -8 -8 -8 -9 -8 -8 -9 -8 -8 -8 -9 -9 -9 -9 -9
-8 -6 -6 -6 -8 -7 -7 -8 -7 -7 -8 -8 -8 -8 -8 -9 -8 -7 -7 -8 -8 -7 -7 -7 -8 -8 -7 -7 -7 -8 -8 -8 -7 -7 -7 -7 -7 -8 -8 -8 -8 -9 -9 -8 -9 -9 -8 -9 -9
-5 -6 -6 -6 -8 -8 -8 -7 -7 -8 -8 -9 -8 -8 -9 -9 -9 -8 -8 -8 -8 -8 -8 -7 -7 -7 -8 -7 -7 -7 -7 -8 -7 -8 -7 -7 -7 -8 -8 -8 -8 -8 -8 -8 -8 -9 -9 -9 -9
-5 -6 -8 -8 -8 -7 -7 -6 -8 -7 -7 -7 -8 -8 -8 -8 -9 -9 -8 -8 -8 -8 -8 -8 -9 -9 -9 -9 -9 -9 -8 -8 -7 -7 -8 -8 -8 -8 -8 -8 -8 -8 -8 -8 -8 -9 -9 -9 -9
-6 -8 -7 -8 -7 -7 -7 -6 -7 -7 -7 -7 -8 -8 -8 -8 -8 -9 -8 -8 -8 -8 -8 -7 -8 -8 -8 -8 -8 -8 -8 -9 -9 -8 -8 -8 -8 -8 -8 -8 -8 -8 -8 -8 -8 -9 -9 -9 -9
-6 -6 -7 -7 -7 -7 -8 -6 -7 -6 -6 -7 -8 -8 -8 -9 -9 -9 -9 -9 -9 -9 -8 -8 -8 -8 -8 -8 -8 -8 -8 -8 -8 -8 -9 -9 -9 -9 -9 -9 -9 -8 -8 -8 -8 -8 -8 -8 -8
-6 -7 -7 -8 -8 -8 -8 -7 -8 -7 -6 -7 -7 -8 -8 -8 -9 -9 -10 -9 -9 -9 -8 -8 -8 -8 -8 -8 -7 -7 -8 -8 -8 -8 -8 -8 -8 -8 -8 -8 -8 -8 -8 -8 -8 -8 -8 -8 -9
-6 -6 -7 -8 -8 -8 -8 -8 -7 -7 -7 -7 -7 -8 -8 -9 -9 -9 -9 -9 -10 -10 -9 -8 -8 -8 -8 -8 -8 -8 -8 -8 -7 -7 -8 -8 -8 -8 -8 -8 -8 -8 -8 -8 -8 -9 -9 -9 -8
-7 -9 -8 -9 -9 -8 -8 -8 -7 -7 -7 -7 -7 -7 -8 -8 -9 -9 -10 -10 -10 -9 -9 -9 -9 -9 -8 -8 -8 -8 -8 -8 -7 -8 -8 -8 -8 -8 -8 -8 -8 -8 -9 -9 -9 -9 -9 -9 -9
Height
5916 5915 5915 5915 5915 5915 5911 5909 5906 5905 5903 5901 5900 5900 5901 5900 5901 5903 5901 5901 5903 5904 5905 5906 5907 5908 5909 5909 5911 5912 5916 5918 5921 5922 5924 5926 5927 5930 5930 5931 5933 5934 5934 5934 5934 5934 5934 5936 5937
5917 5917 5917 5916 5920 5917 5915 5912 5910 5908 5906 5904 5902 5903 5903 5903 5902 5902 5902 5902 5903 5904 5905 5906 5907 5908 5909 5909 5912 5913 5916 5919 5921 5924 5926 5927 5928 5931 5932 5934 5935 5937 5936 5937 5937 5937 5937 5937 5938
5921 5920 5920 5917 5920 5918 5917 5915 5912 5910 5908 5907 5906 5905 5905 5904 5904 5904 5905 5904 5904 5905 5906 5906 5908 5909 5909 5910 5911 5913 5917 5920 5922 5924 5926 5929 5929 5931 5933 5934 5936 5938 5939 5938 5939 5939 5940 5941 5941
5924 5923 5922 5925 5922 5919 5917 5916 5914 5913 5912 5910 5908 5907 5906 5906 5906 5907 5906 5906 5905 5906 5906 5907 5908 5910 5911 5912 5912 5915 5917 5919 5921 5924 5927 5929 5931 5932 5933 5935 5937 5939 5940 5940 5941 5940 5941 5942 5943
5926 5925 5928 5928 5924 5922 5919 5917 5915 5915 5914 5913 5909 5909 5908 5908 5908 5908 5908 5907 5908 5907 5907 5909 5907 5910 5912 5911 5912 5915 5917 5919 5922 5925 5928 5930 5932 5933 5935 5936 5938 5939 5941 5941 5942 5943 5943 5943 5944
5928 5929 5933 5934 5928 5924 5921 5919 5918 5917 5917 5916 5913 5910 5911 5910 5910 5909 5909 5909 5909 5910 5910 5909 5908 5911 5912 5909 5912 5915 5917 5920 5922 5926 5928 5930 5932 5933 5935 5936 5939 5939 5941 5942 5943 5944 5944 5944 5945
5932 5933 5932 5933 5931 5928 5925 5922 5921 5920 5919 5917 5916 5914 5913 5912 5911 5911 5911 5911 5911 5912 5911 5911 5908 5911 5911 5912 5911 5912 5917 5919 5923 5926 5928 5929 5931 5933 5935 5936 5939 5939 5940 5940 5943 5943 5945 5945 5945
5936 5937 5936 5936 5936 5932 5928 5926 5925 5923 5922 5920 5918 5917 5916 5915 5913 5913 5912 5912 5912 5912 5913 5911 5912 5913 5912 5915 5914 5914 5917 5919 5923 5926 5928 5930 5932 5933 5933 5935 5938 5940 5940 5940 5942 5943 5944 5945 5945
5938 5940 5939 5936 5935 5933 5931 5928 5927 5925 5924 5922 5921 5920 5917 5916 5916 5915 5914 5913 5914 5913 5912 5912 5913 5914 5915 5915 5914 5916 5916 5919 5922 5925 5928 5931 5932 5934 5934 5937 5937 5940 5939 5940 5941 5942 5943 5944 5945
5940 5942 5940 5937 5936 5934 5933 5931 5930 5928 5927 5926 5924 5922 5920 5919 5918 5916 5916 5915 5915 5913 5913 5914 5914 5915 5915 5916 5917 5918 5921 5922 5923 5926 5927 5930 5932 5934 5936 5937 5938 5939 5939 5940 5941 5941 5942 5943 5944
5940 5942 5940 5939 5937 5937 5934 5933 5932 5931 5930 5929 5928 5926 5924 5922 5921 5919 5918 5917 5916 5915 5914 5914 5915 5917 5916 5918 5918 5920 5922 5923 5925 5927 5928 5930 5932 5934 5936 5937 5937 5937 5939 5940 5941 5941 5941 5942 5942
5942 5942 5941 5940 5939 5938 5936 5935 5934 5934 5933 5931 5930 5929 5927 5925 5924 5922 5921 5920 5918 5918 5917 5916 5918 5918 5920 5920 5920 5921 5921 5924 5926 5926 5928 5929 5931 5935 5936 5938 5938 5937 5937 5940 5939 5939 5940 5940 5940
5942 5942 5941 5941 5940 5939 5938 5938 5937 5935 5934 5933 5932 5931 5930 5928 5927 5926 5925 5924 5923 5922 5920 5919 5918 5919 5921 5922 5922 5922 5923 5926 5927 5928 5929 5931 5932 5933 5934 5935 5937 5938 5937 5937 5937 5938 5938 5939 5939
5942 5942 5942 5942 5942 5941 5940 5940 5939 5938 5937 5935 5934 5933 5933 5931 5930 5930 5929 5928 5927 5926 5925 5923 5922 5920 5920 5922 5923 5924 5926 5927 5928 5929 5929 5930 5931 5931 5931 5932 5933 5933 5933 5933 5934 5935 5936 5936 5937
5943 5943 5944 5944 5944 5943 5943 5942 5941 5940 5939 5937 5936 5935 5935 5934 5933 5933 5932 5931 5930 5929 5929 5927 5925 5924 5924 5924 5925 5926 5927 5929 5930 5931 5931 5931 5931 5929 5929 5930 5930 5930 5929 5929 5931 5931 5932 5934 5934
5945 5946 5949 5947 5946 5945 5944 5948 5943 5942 5941 5940 5938 5937 5937 5936 5935 5934 5934 5933 5933 5932 5931 5930 5929 5928 5927 5927 5928 5929 5930 5931 5931 5931 5932 5932 5931 5930 5930 5929 5929 5927 5926 5925 5926 5928 5929 5930 5931
5946 5952 5953 5949 5947 5947 5947 5948 5946 5944 5943 5941 5940 5939 5938 5937 5936 5935 5934 5934 5934 5934 5933 5932 5932 5932 5932 5933 5933 5932 5933 5933 5932 5932 5932 5932 5932 5932 5931 5930 5929 5927 5926 5925 5923 5923 5925 5924 5926
5948 5951 5951 5952 5950 5948 5950 5949 5947 5946 5945 5944 5942 5941 5939 5938 5938 5937 5936 5935 5934 5934 5935 5934 5934 5934 5935 5935 5935 5935 5934 5934 5934 5933 5933 5933 5932 5931 5930 5930 5928 5927 5926 5924 5923 5923 5921 5920 5921
5945 5948 5951 5950 5950 5949 5954 5950 5948 5947 5946 5945 5944 5943 5941 5940 5940 5938 5937 5936 5935 5934 5934 5935 5935 5935 5935 5935 5934 5934 5933 5932 5932 5932 5932 5932 5931 5930 5930 5929 5929 5928 5927 5925 5924 5922 5920 5919 5920
5943 5946 5949 5948 5949 5950 5951 5950 5949 5948 5947 5946 5946 5945 5943 5942 5942 5941 5939 5937 5936 5936 5935 5935 5935 5935 5934 5934 5933 5932 5932 5931 5931 5930 5930 5930 5929 5928 5928 5927 5927 5926 5925 5923 5921 5921 5920 5919 5918
5942 5946 5945 5949 5947 5949 5950 5950 5950 5949 5948 5947 5946 5946 5945 5944 5943 5942 5941 5939 5937 5937 5936 5936 5935 5935 5934 5934 5933 5932 5931 5931 5930 5929 5928 5928 5927 5926 5925 5925 5924 5922 5921 5919 5918 5917 5916 5914 5915
5944 5941 5942 5944 5946 5951 5948 5956 5950 5949 5948 5948 5946 5946 5945 5945 5944 5942 5941 5940 5939 5937 5936 5935 5935 5935 5934 5933 5932 5931 5929 5929 5928 5927 5926 5925 5924 5923 5922 5920 5920 5918 5916 5914 5912 5911 5911 5909 5908
5939 5939 5940 5941 5945 5947 5946 5950 5952 5948 5948 5947 5946 5945 5944 5942 5942 5942 5941 5939 5938 5936 5935 5934 5933 5933 5932 5930 5929 5929 5927 5926 5924 5923 5922 5920 5919 5917 5916 5916 5914 5913 5910 5909 5908 5907 5906 5904 5903
5935 5936 5937 5939 5943 5944 5946 5945 5949 5947 5945 5945 5944 5943 5942 5941 5939 5940 5939 5938 5937 5934 5932 5931 5930 5929 5928 5928 5927 5925 5924 5922 5921 5919 5918 5916 5914 5912 5910 5909 5908 5907 5905 5903 5901 5900 5898 5897 5896
5932 5934 5938 5939 5941 5944 5940 5941 5943 5942 5941 5941 5941 5940 5939 5939 5938 5936 5936 5936 5935 5934 5933 5932 5930 5928 5926 5925 5923 5921 5919 5917 5916 5915 5913 5911 5909 5907 5905 5903 5900 5899 5898 5896 5894 5892 5891 5889 5887
5928 5934 5940 5938 5940 5940 5935 5937 5938 5937 5937 5937 5937 5938 5937 5937 5936 5934 5932 5932 5930 5928 5927 5926 5926 5926 5924 5922 5920 5919 5917 5915 5911 5909 5906 5904 5902 5899 5897 5895 5892 5890 5887 5886 5884 5882 5880 5879 5878
5924 5928 5930 5932 5933 5934 5934 5931 5931 5932 5932 5932 5933 5934 5934 5933 5933 5931 5929 5928 5926 5924 5921 5920 5919 5919 5917 5916 5914 5912 5911 5909 5907 5904 5901 5898 5895 5891 5888 5886 5883 5880 5877 5875 5874 5872 5869 5868 5866
5920 5923 5927 5927 5930 5931 5929 5928 5929 5927 5927 5928 5928 5929 5929 5929 5929 5927 5925 5923 5922 5920 5918 5917 5915 5913 5911 5908 5907 5904 5901 5899 5897 5896 5893 5890 5887 5884 5881 5877 5874 5870 5867 5864 5861 5860 5858 5856 5855
5916 5917 5921 5924 5924 5928 5928 5927 5922 5922 5921 5921 5922 5923 5923 5924 5924 5922 5920 5919 5917 5915 5914 5912 5910 5907 5904 5901 5898 5896 5893 5891 5888 5886 5882 5879 5876 5872 5868 5864 5861 5858 5855 5852 5849 5846 5844 5843 5842
5912 5915 5915 5919 5920 5920 5921 5924 5918 5917 5917 5917 5917 5917 5918 5918 5917 5916 5915 5914 5912 5909 5906 5903 5901 5898 5896 5893 5890 5888 5884 5881 5878 5875 5872 5868 5864 5860 5855 5851 5847 5842 5839 5836 5833 5833 5830 5829 5828
Wind_Speed
19 20 17 16 21 20 19 22 22 17 17 16 15 14 13 12 11 11 10 11 10 9 8 8 7 10 5 14 13 18 23 22 21 23 24 23 22 19 20 19 18 17 18 18 16 17 17 15 13
18 19 16 16 22 18 19 22 23 20 19 19 18 15 13 10 10 11 9 12 11 11 9 11 8 8 8 11 20 20 24 22 23 23 23 23 23 19 19 18 18 16 18 16 16 15 15 14 13
18 19 18 23 20 20 20 19 22 23 20 20 18 15 13 10 8 10 11 11 12 11 11 14 11 8 13 21 18 27 24 21 22 24 22 20 22 19 20 18 17 16 17 16 14 14 13 12 11
18 20 22 20 21 21 20 19 19 20 21 19 19 19 16 11 11 10 11 10 10 11 15 9 8 7 8 16 24 25 25 27 24 19 19 21 20 20 20 19 17 16 16 15 13 13 13 12 11
19 17 19 18 21 22 22 19 20 19 17 17 21 19 17 14 13 12 11 12 11 10 12 9 12 5 7 22 24 20 22 28 27 25 21 20 20 18 18 19 18 17 16 15 13 12 12 12 10
17 16 17 15 19 22 21 20 19 16 15 17 18 21 17 15 13 13 11 11 12 14 8 4 11 6 4 25 20 13 21 23 25 23 21 20 20 19 18 18 18 17 17 15 13 10 11 10 10
14 15 17 17 17 19 19 18 18 15 15 16 17 18 19 17 15 13 11 11 11 11 12 12 7 12 9 16 24 7 14 22 24 21 22 22 22 20 17 18 18 19 17 17 15 13 10 10 9
12 12 14 16 15 17 18 18 17 17 16 14 14 16 19 19 16 15 11 10 9 6 11 7 10 11 2 7 12 6 16 24 25 25 23 23 22 20 20 18 18 18 17 16 16 13 11 10 10
12 12 10 17 16 18 18 18 17 16 15 17 17 15 17 19 19 17 14 11 6 4 9 12 12 13 10 7 3 4 12 23 19 27 26 25 22 22 18 18 17 17 17 17 17 15 14 12 10
14 9 9 15 16 19 17 16 16 17 15 16 18 18 18 18 18 18 16 12 7 6 9 12 18 13 11 7 4 5 7 8 15 18 29 32 27 23 18 17 17 16 16 17 17 17 16 15 12
12 10 9 12 13 17 17 14 14 17 16 15 15 17 19 20 20 18 17 15 14 12 8 6 8 4 7 6 4 4 8 7 6 5 16 27 31 19 18 18 18 18 17 17 17 18 17 16 14
12 10 9 11 12 14 17 14 13 15 14 13 15 15 17 18 19 19 18 16 16 15 11 9 8 7 8 7 7 7 7 7 2 4 14 28 24 19 19 18 18 18 18 18 19 18 18 17 16
10 10 12 13 12 13 17 15 12 13 14 13 12 13 14 15 17 18 17 16 14 13 12 11 7 8 10 10 8 9 11 9 9 7 14 17 16 17 21 22 23 17 18 19 18 18 18 17 17
10 11 10 12 12 13 15 15 13 14 12 13 13 12 12 12 13 14 15 15 12 11 11 11 10 10 12 13 15 16 15 14 12 8 8 8 6 7 11 14 22 24 24 21 22 19 19 19 18
9 10 11 11 14 15 16 15 16 15 13 13 14 11 10 9 10 10 11 12 12 9 9 11 12 14 14 12 12 10 10 10 9 9 10 9 8 8 10 14 13 13 19 22 26 24 21 21 20
13 9 8 6 11 10 21 9 15 15 14 13 13 12 10 8 6 7 7 8 9 9 9 8 10 11 12 13 12 12 11 10 9 8 7 7 5 4 2 2 9 15 17 17 12 15 22 22 24
7 5 10 5 8 10 17 11 12 12 13 13 11 10 9 8 6 5 5 5 6 7 8 9 7 6 8 9 9 7 7 6 6 6 5 3 3 3 2 2 3 5 7 14 10 9 9 13 23
5 10 6 6 5 10 8 10 10 8 8 10 13 11 10 10 8 5 5 5 6 7 6 7 7 8 5 3 3 3 3 3 2 2 2 2 4 5 4 3 5 5 5 5 7 9 11 11 11
5 6 6 2 5 8 8 9 7 7 3 4 8 10 10 11 10 8 5 4 5 5 6 5 4 4 4 4 3 4 4 4 5 6 6 5 6 7 9 9 10 11 11 12 12 11 10 12 12
0 2 6 1 4 5 6 12 10 7 4 2 5 7 9 10 9 7 7 5 4 4 3 4 3 2 2 2 4 5 6 6 7 9 10 10 11 12 12 13 17 18 17 16 17 16 15 17 15
4 5 12 7 4 4 5 5 14 10 7 5 5 4 5 8 9 8 6 6 5 4 4 2 3 5 7 7 8 10 11 11 11 9 10 11 13 14 16 17 18 18 18 20 22 21 21 23 22
8 8 10 11 8 6 3 5 11 15 10 9 10 9 9 5 7 9 9 6 5 4 4 5 6 7 7 7 9 11 14 16 14 15 15 16 20 21 18 21 23 20 20 19 20 23 24 25 26
14 8 6 7 8 12 6 10 12 13 11 10 10 12 13 13 11 8 10 10 10 7 6 4 6 9 10 11 12 14 15 17 19 19 18 18 18 18 21 23 24 24 26 25 24 25 25 26 28
8 7 7 6 8 8 12 8 10 11 10 13 16 15 17 16 15 14 12 11 11 12 13 15 15 15 18 18 18 19 19 20 20 21 22 23 23 23 24 24 25 26 28 30 30 31 31 31 31
8 5 4 6 10 9 16 9 10 11 9 9 12 17 19 19 18 17 19 14 12 12 10 12 13 18 22 22 22 24 26 28 27 26 26 28 28 29 30 30 31 30 32 34 35 36 35 36 37
10 9 10 7 8 15 13 10 11 11 11 11 13 14 15 15 18 21 23 18 17 18 18 16 15 17 21 24 25 24 25 26 30 31 33 34 35 34 35 36 37 39 39 38 38 38 39 38 37
15 9 15 12 13 10 12 14 14 12 14 15 15 15 17 18 19 23 24 21 21 23 23 22 22 23 24 25 27 28 28 28 28 30 32 34 38 39 39 41 43 44 45 46 46 46 46 45 45
18 15 10 11 10 9 15 14 10 13 13 13 16 17 18 19 21 25 27 24 21 24 25 25 26 26 28 30 30 31 31 32 32 34 35 38 40 42 43 43 45 46 48 50 51 51 51 51 48
20 18 14 14 11 8 7 8 15 15 15 13 14 18 21 22 24 27 26 22 24 27 26 26 27 28 30 32 34 34 37 37 37 37 36 39 41 43 45 47 49 50 50 52 54 55 54 54 54
21 17 18 12 15 15 14 10 15 17 17 16 16 16 16 19 22 23 22 23 27 29 29 30 32 34 35 38 39 40 40 41 40 41 42 44 46 48 51 54 56 57 57 59 58 56 57 57 56
Wind_Direction
81 78 76 77 77 71 74 63 60 71 75 81 105 122 119 125 121 121 122 124 133 138 142 146 128 163 209 162 179 164 155 153 150 147 142 144 139 138 135 133 128 125 118 119 119 117 115 112 105
78 74 76 80 76 83 79 77 69 74 80 79 84 104 110 105 113 114 123 125 123 133 156 148 149 141 160 203 178 167 158 153 151 150 147 149 144 147 140 140 137 135 124 120 118 118 119 118 111
81 79 87 76 76 82 82 77 70 62 70 80 86 95 96 97 110 115 118 123 120 139 145 110 148 136 155 173 177 163 157 153 156 156 157 153 152 153 148 148 149 145 131 124 120 118 121 120 116
82 80 77 77 75 73 73 74 71 63 56 73 80 76 84 101 108 113 121 114 125 158 135 143 141 157 146 201 169 163 171 165 155 154 168 164 161 158 157 156 158 156 145 134 128 129 132 133 127
80 78 67 70 69 73 71 68 68 64 56 58 72 71 71 83 100 101 105 113 131 130 124 187 149 166 202 203 179 175 185 174 169 160 174 171 173 170 167 163 167 163 156 150 141 135 135 137 138
82 78 88 75 70 70 69 66 62 61 63 60 64 71 69 73 84 97 104 113 124 138 161 199 189 155 221 192 191 184 188 182 171 176 174 174 175 174 175 173 175 172 167 163 156 152 143 140 139
79 79 82 80 68 73 73 74 69 64 60 55 57 69 67 69 73 84 97 112 114 161 166 191 162 183 221 218 204 186 191 188 177 180 180 181 179 181 178 176 183 180 177 171 174 167 164 160 150
79 81 79 83 76 77 75 72 74 68 65 66 60 61 72 69 73 74 85 99 112 140 184 162 188 206 226 232 188 216 208 194 187 186 191 188 183 182 183 180 188 187 187 181 180 179 183 178 166
68 81 86 91 90 80 74 75 78 75 66 67 66 65 67 65 68 72 75 86 103 146 195 193 184 186 177 201 156 88 241 198 196 197 195 199 192 191 190 195 195 202 193 193 190 188 189 192 190
73 82 92 90 86 88 78 76 77 76 70 68 69 64 67 66 60 65 65 67 88 150 162 195 167 170 174 174 175 151 162 241 255 222 216 197 192 193 201 208 212 211 206 206 201 198 199 199 203
76 99 97 92 86 88 94 91 81 81 75 77 77 73 67 66 60 60 61 67 84 105 119 106 120 164 129 154 151 117 108 133 197 251 234 206 193 208 209 210 213 213 213 214 212 211 208 212 208
85 96 101 100 85 79 96 99 97 91 84 80 83 83 78 71 65 60 58 66 78 88 99 117 140 149 158 153 134 135 142 137 154 226 224 205 198 213 220 221 219 216 217 221 220 219 218 217 217
95 105 115 107 96 89 91 97 98 90 89 79 77 80 82 77 69 65 63 64 76 91 99 106 124 171 164 145 125 112 111 157 156 176 215 221 229 224 229 232 236 230 228 226 228 229 230 231 229
100 106 107 106 99 85 85 94 104 98 86 85 81 73 79 81 77 68 62 63 68 77 94 101 92 99 139 142 132 125 124 127 140 142 170 177 188 206 220 230 239 227 235 227 232 233 233 237 236
105 96 95 110 113 98 75 83 96 98 92 85 87 81 74 78 82 79 68 61 60 68 73 89 99 101 115 127 134 136 132 136 144 147 148 154 157 175 213 224 237 242 252 252 244 226 228 236 242
113 102 94 105 118 112 92 103 89 86 79 82 89 86 78 70 74 81 77 75 63 60 59 64 82 103 110 112 115 116 114 116 122 131 145 149 130 112 91 219 256 251 256 267 278 269 260 236 232
113 127 148 139 129 134 113 133 94 83 68 66 79 91 74 66 66 70 66 58 64 65 60 57 72 91 108 117 117 110 102 97 95 96 103 111 115 123 99 45 20 8 296 274 269 267 281 277 239
171 155 153 143 124 140 137 152 115 85 70 54 56 65 72 60 54 43 54 70 51 44 60 59 65 62 82 90 95 106 103 102 104 83 35 22 3 340 336 336 355 342 345 337 317 313 312 299 283
94 128 186 58 150 139 186 200 163 134 110 50 44 42 47 46 47 40 51 65 71 58 45 46 49 64 64 55 50 37 359 303 276 281 271 262 284 302 308 317 314 307 305 307 308 304 296 292 292
16 228 191 284 139 135 167 201 200 193 182 333 24 22 30 25 35 54 47 65 65 58 57 31 12 340 280 255 267 282 293 291 286 276 274 277 276 289 286 299 307 304 294 295 296 293 299 293 290
265 196 243 239 274 221 169 205 207 208 206 250 293 333 9 10 4 10 37 52 54 68 82 78 6 333 318 310 303 307 311 308 309 304 296 302 293 285 287 288 296 301 296 289 292 290 288 286 291
248 253 254 252 230 250 213 229 244 220 229 227 255 275 289 321 345 347 335 348 29 65 41 22 357 344 335 315 302 303 305 302 307 298 303 290 289 282 292 288 289 294 292 289 285 279 281 282 282
229 256 249 243 207 224 249 198 241 237 225 228 236 266 276 282 297 324 311 306 327 335 339 341 345 333 325 321 321 319 312 308 306 303 296 295 294 292 284 285 290 291 292 291 288 284 283 282 279
248 267 280 261 215 237 232 238 235 249 222 220 232 245 258 266 278 300 308 292 309 324 325 319 315 315 317 318 318 313 309 306 305 302 297 296 295 292 289 290 288 288 288 289 287 288 286 282 281
255 269 269 230 231 227 250 254 213 230 213 223 228 243 253 258 269 291 305 298 294 292 283 293 299 302 304 303 298 303 306 305 305 303 298 295 294 292 290 288 286 285 284 286 286 285 284 283 285
250 205 207 224 230 251 265 269 248 243 244 242 247 257 266 275 279 286 294 301 297 298 299 297 295 290 284 285 286 288 291 293 296 295 294 293 291 289 289 289 289 289 287 284 283 284 286 285 284
253 227 221 220 248 244 262 289 281 259 251 252 257 261 265 266 273 277 286 293 294 302 305 305 304 298 291 287 288 291 292 290 286 282 280 281 283 284 282 284 286 286 286 286 285 285 284 285 286
241 242 242 247 237 235 276 285 255 278 262 250 246 252 258 263 268 274 275 280 288 294 298 299 296 294 292 291 292 295 295 291 288 286 283 282 280 277 280 282 282 284 285 284 284 284 283 282 283
246 252 230 221 231 232 264 267 268 269 269 261 251 253 253 250 249 257 266 276 283 286 289 290 292 292 294 297 298 299 299 296 295 293 290 288 286 286 286 286 286 283 281 281 281 281 282 282 281
239 230 235 235 280 243 243 251 263 263 262 265 267 265 259 251 249 255 263 271 276 287 296 302 302 301 301 299 299 301 300 297 296 293 290 287 286 285 284 282 281 283 285 287 286 282 281 281 281